CAPE
7 9 6 3 12 11 5 3 3 4 6 4 3 2 1 0 0 0 28 97 77 79 115 105 103 9 0 0 0 0 2 129 137 70 29 10 89 0 0 0 0 0 0 0 0 0 0
8 6 6 7 5 7 9 5 2 5 6 4 1 1 1 0 0 0 22 69 80 73 133 86 63 0 0 0 0 0 0 35 22 10 0 0 0 0 0 0 0 0 0 0 0 0 0
3 4 3 2 3 3 5 4 3 1 4 5 1 0 0 0 0 0 8 20 127 31 34 49 4 0 0 0 0 0 0 2 0 12 1 0 0 0 0 0 0 0 0 0 0 0 0
2 6 10 7 3 3 10 15 10 3 2 6 2 0 0 0 0 0 0 0 73 21 4 6 0 0 0 2 9 0 3 0 1 0 0 0 0 0 0 0 0 0 0 0 0 0 0
3 7 5 7 5 3 12 7 17 3 4 4 2 1 0 0 0 0 0 0 0 0 0 0 0 0 0 0 12 0 2 0 0 0 0 0 0 0 0 0 0 0 0 0 0 0 0
3 2 6 6 9 7 5 5 10 5 4 3 2 0 0 0 0 0 0 0 0 0 0 0 0 0 0 1 0 0 0 0 0 16 28 0 0 0 0 0 0 0 0 0 0 0 0
7 2 8 4 3 5 5 8 8 4 3 1 1 0 0 0 0 0 0 0 0 0 0 0 0 0 0 0 0 0 0 27 24 3 5 0 0 0 0 0 0 0 0 0 0 0 0
3 5 4 6 7 8 9 6 6 6 3 0 0 0 0 0 0 0 0 0 0 0 0 0 0 0 0 0 1 0 0 2 3 0 0 0 0 0 0 0 0 0 0 0 0 0 0
4 5 7 5 5 5 4 7 2 1 5 1 0 0 0 0 0 0 0 0 0 0 0 0 0 0 0 0 0 0 0 0 0 0 0 0 0 0 0 0 0 0 0 0 0 0 0
4 4 5 6 5 2 2 2 3 5 1 3 0 0 0 0 0 0 0 0 0 0 0 0 0 0 0 0 0 0 0 0 0 0 0 0 0 0 0 0 0 0 0 0 0 0 0
6 5 5 4 3 1 1 1 3 2 3 3 0 0 0 0 0 0 0 0 0 0 0 0 0 0 0 0 0 0 0 0 0 0 0 0 0 0 0 0 0 0 0 0 0 0 0
9 7 5 4 2 1 1 1 3 8 8 0 0 0 0 0 0 0 0 0 0 0 0 0 0 0 0 0 0 0 0 0 0 0 0 0 0 0 0 0 0 0 0 0 0 0 0
7 5 4 4 2 1 1 1 2 6 5 0 0 0 0 0 0 0 0 0 0 0 0 0 0 0 0 0 0 0 0 0 0 0 0 0 0 0 0 0 0 0 0 0 0 0 0
2 1 2 4 3 1 1 0 1 3 5 0 0 0 0 0 0 0 0 0 0 0 0 0 0 0 0 0 0 0 0 0 0 0 0 0 0 0 0 0 0 0 0 0 0 0 0
7 1 0 2 2 0 0 0 0 1 3 0 0 0 0 0 0 0 0 0 0 0 0 0 0 0 0 0 0 0 0 0 0 0 0 0 0 0 0 0 0 0 0 0 0 0 0
2 12 3 0 0 0 0 0 0 0 3 0 0 0 0 0 0 0 0 0 0 0 0 0 0 0 0 0 0 0 0 0 0 0 0 0 0 0 0 0 0 0 0 0 0 0 0
1 7 5 0 0 0 0 0 0 0 3 0 0 0 0 0 0 0 0 0 0 0 0 0 0 0 0 0 0 0 0 0 0 0 0 0 0 0 0 0 0 0 0 0 0 0 0
2 2 7 1 0 0 0 0 0 0 0 0 0 0 0 0 0 0 0 0 0 0 0 0 0 0 0 0 0 0 0 0 0 0 0 0 0 0 0 0 0 0 0 0 0 0 0
0 0 3 0 0 0 0 0 0 0 0 0 0 0 0 0 0 0 0 0 0 0 0 0 0 0 0 0 0 0 0 0 0 0 0 0 0 0 0 0 0 0 0 0 0 0 0
3 0 0 0 0 0 0 0 0 0 0 0 0 0 0 0 0 0 0 0 0 0 0 0 0 0 0 0 0 0 0 0 0 0 0 0 0 0 0 0 0 0 0 0 0 0 0
0 0 0 0 0 0 0 0 0 0 0 0 0 0 0 0 0 0 0 0 0 0 0 0 0 0 0 0 0 0 0 0 0 0 0 0 0 0 0 0 0 0 0 0 0 0 0
0 0 0 0 0 0 0 0 0 0 0 0 0 0 0 0 0 0 0 0 0 0 0 0 0 0 0 0 0 0 0 0 0 0 0 0 0 0 0 0 0 0 0 0 0 0 0
0 0 0 0 0 0 0 0 0 0 0 0 0 0 0 0 0 0 0 0 0 0 0 0 0 0 0 0 0 0 0 0 0 0 0 0 0 0 0 0 0 0 0 0 0 0 0
0 0 0 0 0 0 0 0 0 0 0 0 0 0 0 0 0 0 0 0 0 0 0 0 0 0 0 0 0 0 0 0 0 0 0 0 0 0 0 0 0 0 0 0 0 0 0
8 2 2 0 0 0 0 0 0 0 0 0 0 0 0 0 0 0 0 0 0 0 0 0 0 0 0 0 0 0 0 0 0 0 0 0 0 0 0 0 0 0 0 0 0 0 0
3 1 1 4 0 0 0 0 0 0 0 0 0 0 0 0 0 0 0 0 0 0 0 0 0 0 0 0 0 0 0 0 0 0 0 0 0 0 0 0 0 0 0 0 0 0 0
6 1 1 0 1 1 0 0 0 0 0 0 0 0 0 0 0 0 0 0 0 0 0 0 0 0 0 0 0 0 0 0 0 0 0 0 0 0 0 0 0 0 0 0 0 0 0
5 4 1 1 1 0 0 0 0 0 0 0 0 0 0 0 0 0 0 0 0 0 0 0 0 0 0 0 0 0 0 0 0 0 0 0 0 0 0 0 0 0 0 0 0 0 0
3 2 1 0 0 1 0 0 1 0 0 0 0 0 0 0 0 0 0 0 0 0 0 0 0 0 0 0 0 0 0 0 0 0 0 0 0 0 0 0 0 0 0 0 0 0 0
CIN
0 0 0 0 0 0 -1 -2 0 0 0 0 0 0 0 0 0 0 -58 -36 -49 -47 -34 -17 -32 -54 0 0 0 0 -11 -16 -44 -84 -81 -38 -17 0 0 0 0 0 0 0 0 0 0
0 0 0 0 0 -2 0 -1 -1 0 0 0 0 0 0 0 0 0 -99 -71 -63 -62 -30 -21 -21 0 0 0 0 0 0 -25 -43 -107 0 0 -12 0 0 0 0 0 0 0 0 0 0
0 0 0 0 0 0 -1 0 0 0 0 0 0 0 0 0 0 0 -147 -96 -56 -75 -52 -34 -1 0 0 0 0 0 0 -34 0 -103 -178 0 0 0 0 0 0 0 0 0 0 0 0
0 0 0 0 0 0 0 0 0 0 0 0 0 0 0 0 0 0 0 0 -86 -84 -73 -48 0 0 -9 -77 -63 0 -51 -56 -59 -30 0 0 0 0 0 0 0 0 0 0 0 0 0
0 0 0 0 0 0 0 0 0 0 0 0 0 0 0 0 0 0 0 0 0 0 0 0 0 0 0 -11 -20 -6 -81 0 -21 0 0 0 0 0 0 0 0 0 0 0 0 0 0
0 0 0 0 0 0 0 0 0 0 0 0 0 0 0 0 0 0 0 0 0 0 0 0 0 0 -17 -7 0 0 0 0 0 -30 -31 0 0 0 0 0 0 0 0 0 0 0 0
0 0 0 0 0 0 0 0 0 0 0 0 0 0 0 0 0 0 0 0 0 0 0 0 0 0 0 0 0 0 0 -50 -25 -20 0 0 0 0 0 0 0 0 0 0 0 0 0
0 0 0 0 0 0 0 0 0 0 0 0 0 0 0 0 0 0 0 0 0 0 0 0 0 0 0 0 -26 -35 -41 -7 -3 0 0 0 0 0 0 0 0 0 0 0 0 0 0
0 0 0 0 0 0 0 0 0 0 0 0 0 0 0 0 0 0 0 0 0 0 0 0 0 0 0 0 -3 -2 0 0 0 0 0 0 0 0 0 0 0 0 0 0 0 0 0
0 0 0 0 0 0 0 0 0 0 0 0 0 0 0 0 0 0 0 0 0 0 0 0 0 0 0 0 0 0 0 0 0 0 0 0 0 0 0 0 0 0 0 0 0 0 0
0 0 0 0 0 0 0 0 0 0 0 0 0 0 0 0 0 0 0 0 0 0 0 0 0 0 0 0 0 0 0 0 0 0 0 0 0 0 0 0 0 0 0 0 0 0 0
0 0 0 0 0 0 0 0 0 0 0 0 0 0 0 0 0 0 0 0 0 0 0 0 0 0 0 0 0 0 0 0 0 0 0 0 0 0 0 0 0 0 0 0 0 0 0
0 0 0 0 0 0 0 0 0 0 0 0 0 0 0 0 0 0 0 0 0 0 0 0 0 0 0 0 0 0 0 0 0 0 0 0 0 0 0 0 0 0 0 0 0 0 0
0 0 0 0 0 0 0 0 0 0 0 0 0 0 0 0 0 0 0 0 0 0 0 0 0 0 0 0 0 0 0 0 0 0 0 0 0 0 0 0 0 0 0 0 0 0 0
0 0 0 0 0 0 0 0 0 0 0 0 0 0 0 0 0 0 0 0 0 0 0 0 0 0 0 0 0 0 0 0 0 0 0 0 0 0 0 0 0 0 0 0 0 0 0
0 -1 0 0 0 0 0 0 0 0 0 0 0 0 0 0 0 0 0 0 0 0 0 0 0 0 0 0 0 0 0 0 0 0 0 0 0 0 0 0 0 0 0 0 0 0 0
0 -1 -1 0 0 0 0 0 0 0 0 0 0 0 0 0 0 0 0 0 0 0 0 0 0 0 0 0 0 0 0 0 0 0 0 0 0 0 0 0 0 0 0 0 0 0 0
0 -3 -1 -1 0 0 0 0 0 0 0 0 0 0 0 0 0 0 0 0 0 0 0 0 0 0 0 0 0 0 0 0 0 0 0 0 0 0 0 0 0 0 0 0 0 0 0
-2 -1 -5 0 0 0 0 0 0 0 0 0 0 0 0 0 0 0 0 0 0 0 0 0 0 0 0 0 0 0 0 0 0 0 0 0 0 0 0 0 0 0 0 0 0 0 0
-11 0 0 0 0 0 0 0 0 0 0 0 0 0 0 0 0 0 0 0 0 0 0 0 0 0 0 0 0 0 0 0 0 0 0 0 0 0 0 0 0 0 0 0 0 0 0
0 0 0 0 0 0 0 0 0 0 0 0 0 0 0 0 0 0 0 0 0 0 0 0 0 0 0 0 0 0 0 0 0 0 0 0 0 0 0 0 0 0 0 0 0 0 0
0 0 0 0 0 0 0 0 0 0 0 0 0 0 0 0 0 0 0 0 0 0 0 0 0 0 0 0 0 0 0 0 0 0 0 0 0 0 0 0 0 0 0 0 0 0 0
0 0 0 0 0 0 0 0 0 0 0 0 0 0 0 0 0 0 0 0 0 0 0 0 0 0 0 0 0 0 0 0 0 0 0 0 0 0 0 0 0 0 0 0 0 0 0
0 0 0 0 0 0 0 0 0 0 0 0 0 0 0 0 0 0 0 0 0 0 0 0 0 0 0 0 0 0 0 0 0 0 0 0 0 0 0 0 0 0 0 0 0 0 0
-1 -3 -7 -3 0 0 0 0 0 0 0 0 0 0 0 0 0 0 0 0 0 0 0 0 0 0 0 0 0 0 0 0 0 0 0 0 0 0 0 0 0 0 0 0 0 0 0
0 0 -9 -2 -1 0 0 0 0 0 0 0 0 0 0 0 0 0 0 0 0 0 0 0 0 0 0 0 0 0 0 0 0 0 0 0 0 0 0 0 0 0 0 0 0 0 0
0 0 0 0 0 -5 -4 0 0 0 0 0 0 0 0 0 0 0 0 0 0 0 0 0 0 0 0 0 0 0 0 0 0 0 0 0 0 0 0 0 0 0 0 0 0 0 0
0 0 0 0 0 0 0 -15 0 0 0 0 0 0 0 0 0 0 0 0 0 0 0 0 0 0 0 0 0 0 0 0 0 0 0 0 0 0 0 0 0 0 0 0 0 0 0
0 0 0 0 0 0 0 0 -21 0 0 0 0 0 0 0 0 0 0 0 0 0 0 0 0 0 0 0 0 0 0 0 0 0 0 0 0 0 0 0 0 0 0 0 0 0 0
Wind_Speed
15 16 16 17 16 16 16 16 16 16 15 15 15 15 16 16 16 16 14 10 5 4 6 10 10 6 4 7 3 5 11 8 3 3 5 3 5 2 6 4 5 3 3 1 3 7 5
16 16 17 17 18 17 17 17 17 16 16 15 15 15 16 17 16 16 13 11 3 3 5 5 7 6 6 6 5 5 5 3 4 2 5 4 3 2 1 4 3 3 3 2 6 4 4
16 17 17 17 18 18 19 18 17 16 15 14 15 15 15 16 17 16 15 11 7 1 3 5 4 5 9 2 7 5 2 2 1 4 4 3 1 1 2 5 3 5 5 3 7 4 3
15 16 17 18 19 19 19 18 18 17 15 15 15 14 16 15 16 17 15 11 6 4 3 4 5 5 4 3 6 1 2 2 3 4 3 6 0 2 1 3 6 4 5 4 4 4 1
15 16 17 18 19 20 20 20 18 17 15 14 14 15 15 16 15 17 16 8 4 1 2 1 7 7 4 19 3 1 3 3 1 3 2 1 2 1 3 5 4 7 4 4 3 4 1
15 16 17 18 19 20 21 21 19 17 16 15 13 14 14 15 15 16 17 1 4 5 5 3 3 7 2 1 5 4 2 3 5 3 5 4 4 3 3 4 7 3 5 3 5 5 5
15 16 17 17 19 20 21 21 20 18 16 15 13 13 13 13 14 13 8 4 8 6 9 3 2 6 3 3 3 6 6 3 3 3 4 2 6 4 2 3 3 5 5 6 2 4 4
14 14 15 17 18 19 21 22 21 19 17 14 13 12 13 13 12 8 5 6 2 2 2 2 1 2 4 5 2 4 4 5 4 2 4 4 4 2 1 6 7 4 7 4 2 5 4
13 14 15 16 18 19 20 20 22 20 19 15 12 12 13 11 7 6 4 3 2 2 3 4 1 2 2 5 4 4 2 2 4 2 2 5 1 1 1 6 8 5 5 3 5 2 5
13 14 15 16 17 19 20 20 20 20 18 16 13 11 11 13 5 1 3 1 1 1 6 10 7 3 3 1 3 4 4 2 4 2 0 6 4 4 4 6 2 5 3 3 7 4 3
14 14 14 15 17 18 19 21 21 21 19 15 13 10 8 9 5 3 2 3 0 3 7 11 10 4 4 4 2 5 2 3 2 2 4 2 5 6 8 1 2 3 1 3 4 6 4
14 14 15 15 16 18 19 20 21 20 18 14 10 10 4 5 3 1 3 2 3 10 2 7 4 7 7 7 6 5 5 6 1 6 7 3 1 4 2 2 2 7 5 7 5 3 4
13 15 15 15 16 18 19 19 20 20 19 15 8 7 5 1 1 3 2 3 7 8 4 6 4 5 1 6 7 8 5 8 5 6 6 6 5 4 5 4 2 4 6 4 5 5 4
12 14 14 16 16 18 18 19 20 20 18 14 7 4 4 2 3 2 3 8 9 5 4 3 3 3 4 5 4 7 4 6 5 5 4 5 6 7 8 3 1 3 4 7 6 4 3
10 11 13 14 16 17 19 19 21 20 18 11 3 3 3 4 4 1 7 8 6 3 3 5 3 5 5 3 3 5 5 2 2 4 5 4 4 4 4 3 2 2 3 3 9 3 3
9 8 10 13 15 16 18 20 21 22 20 7 3 2 3 6 4 5 8 3 1 2 3 3 3 3 5 7 4 4 2 2 4 3 2 2 5 2 4 1 5 2 5 4 4 3 2
10 9 9 12 13 15 17 20 22 23 21 2 4 4 3 4 3 7 6 2 1 2 1 4 3 3 3 4 4 4 1 1 0 3 3 2 3 4 2 5 1 3 2 5 4 3 5
9 7 9 9 11 13 15 18 20 22 21 6 3 4 2 2 6 2 3 3 1 1 2 1 2 2 1 4 5 4 3 3 6 2 2 0 5 3 1 1 1 1 1 3 5 2 2
7 8 8 8 9 11 13 16 18 20 15 2 3 2 2 3 4 3 1 2 1 1 2 2 2 2 1 3 3 3 3 2 6 4 2 1 2 3 5 4 2 2 3 4 4 3 5
6 8 8 8 9 11 13 15 17 18 14 4 3 4 5 6 1 4 2 1 2 0 2 1 1 2 1 3 2 1 3 3 5 3 9 3 1 3 7 4 4 3 4 4 4 3 4
7 7 7 7 7 9 11 14 17 18 11 4 4 1 2 3 4 3 2 0 1 1 1 1 2 2 1 2 1 1 1 2 3 4 3 4 2 4 4 4 3 3 5 8 9 5 7
7 7 7 8 8 8 10 12 15 19 5 6 2 3 2 1 2 1 3 0 1 1 1 2 2 2 2 2 2 3 3 3 2 2 2 2 3 2 3 1 3 5 7 8 4 2 8
8 6 6 6 7 7 8 11 13 17 9 4 0 1 3 3 1 2 3 3 2 1 1 1 0 1 2 0 3 2 1 2 1 2 2 2 4 2 4 1 5 6 7 6 5 5 5
9 7 7 6 5 4 6 8 10 11 8 3 0 2 3 2 1 3 2 3 4 4 3 1 2 1 1 2 2 3 4 3 3 5 2 3 3 2 3 4 1 3 3 6 6 4 6
6 8 7 7 6 4 2 5 6 7 7 4 1 2 2 2 2 2 2 2 1 1 2 3 3 2 1 3 3 3 3 1 3 4 2 3 3 1 1 2 6 2 2 4 3 1 3
10 12 9 6 7 6 4 3 2 3 5 4 1 2 3 3 4 1 2 2 3 2 2 1 1 1 4 3 3 1 3 2 2 1 3 3 4 4 1 2 5 3 2 2 3 2 5
11 11 10 10 12 7 6 6 5 3 4 3 0 2 3 2 3 3 4 4 4 2 2 1 2 1 3 2 2 4 4 3 3 4 3 2 1 4 3 3 9 6 4 2 3 4 5
10 11 11 11 10 10 9 7 7 7 8 5 2 3 3 1 5 5 4 5 2 3 4 3 3 1 3 2 3 3 3 4 2 5 7 7 6 4 3 2 9 6 2 4 4 1 1
9 10 10 10 11 12 11 10 9 9 10 7 2 2 3 2 5 4 5 3 5 5 5 3 3 4 5 4 2 3 2 1 2 3 1 3 7 6 9 7 4 3 1 2 2 2 2
Wind_Direction
33 30 24 22 18 12 5 0 353 347 346 344 343 343 343 341 341 342 352 359 14 331 324 354 16 22 29 47 12 309 344 350 7 71 95 101 122 176 135 158 118 140 177 32 80 88 75
31 27 22 18 15 9 5 2 356 348 345 345 339 343 342 340 339 336 350 351 357 314 8 18 37 82 70 56 293 316 327 352 27 55 119 76 86 305 176 132 145 145 116 102 51 53 54
27 24 19 16 12 6 5 1 358 350 344 344 340 341 341 340 335 335 337 345 321 296 353 11 69 89 71 360 319 308 316 30 355 347 73 106 355 19 185 114 173 152 89 64 29 9 86
24 21 16 15 11 6 4 2 357 353 347 344 340 339 337 341 335 329 331 339 309 289 310 8 57 77 52 311 310 269 151 36 97 73 74 130 206 266 303 136 36 68 52 100 352 11 352
22 17 15 13 11 6 4 4 1 359 350 347 341 337 338 335 337 331 330 349 33 14 207 31 42 86 19 323 5 330 67 47 160 115 99 286 184 115 34 90 46 21 116 106 94 43 255
22 18 16 12 9 8 6 7 5 3 358 349 346 338 341 334 334 334 328 186 86 43 16 62 112 69 252 308 307 324 78 66 71 96 15 16 47 84 41 85 180 146 112 52 111 338 48
21 16 14 13 10 7 7 5 5 4 2 355 352 340 340 336 332 342 4 31 21 348 40 53 21 120 92 21 320 8 38 38 49 33 122 341 70 107 94 100 134 135 116 109 24 340 86
16 12 11 9 8 4 4 5 4 2 1 360 354 345 340 338 334 355 61 77 140 186 5 27 41 49 111 195 107 307 321 83 74 171 357 30 64 318 273 90 96 69 113 70 70 9 85
10 8 9 7 4 0 1 2 3 2 356 354 352 348 342 338 327 37 78 99 142 162 106 352 308 96 154 156 110 297 205 333 117 138 246 95 324 331 55 56 83 37 104 166 133 106 64
9 7 5 3 359 358 358 358 2 1 356 348 342 348 348 336 65 265 44 328 117 156 71 322 344 12 22 154 88 174 232 247 26 127 75 73 326 107 66 73 60 62 312 99 98 88 151
8 5 2 1 359 356 356 354 356 1 357 344 336 341 360 46 150 61 336 328 112 67 56 310 312 289 355 86 319 18 345 76 78 334 115 338 12 36 68 352 354 146 139 86 97 90 98
3 2 359 358 358 355 354 351 351 357 358 350 340 339 22 33 56 321 322 358 35 45 289 335 317 355 16 14 9 320 37 32 157 56 35 77 37 52 76 41 61 144 74 44 55 77 42
357 359 356 356 356 355 351 349 351 355 357 357 353 1 49 72 160 316 351 51 41 87 278 312 323 10 35 358 12 28 31 24 45 50 14 1 9 350 37 73 60 82 60 15 17 15 214
353 354 355 352 355 353 351 347 348 352 351 349 351 34 22 57 302 338 62 47 69 244 253 320 318 308 68 3 37 7 55 29 20 46 81 107 359 6 339 38 169 63 138 149 166 175 244
349 351 351 351 352 352 350 347 346 348 350 343 9 6 39 329 331 41 73 50 188 239 333 339 336 32 351 7 96 86 51 20 311 8 101 105 30 324 41 359 38 174 66 142 105 67 48
349 344 346 350 349 348 348 347 346 346 351 7 72 53 348 320 348 54 73 125 24 250 336 2 37 21 354 334 28 61 34 249 325 19 215 184 85 357 299 283 37 77 136 64 4 119 276
336 339 337 347 344 342 344 347 347 348 349 346 57 46 274 348 49 51 91 180 260 234 68 22 2 345 2 346 23 1 299 355 331 315 65 120 100 298 344 14 1 24 31 56 110 78 154
324 322 325 338 341 340 343 346 348 349 349 40 91 31 315 46 48 40 102 159 213 53 56 54 107 34 21 1 11 32 22 346 341 306 67 168 123 114 159 283 293 33 89 110 108 241 55
286 299 319 331 339 338 341 344 346 352 10 11 73 256 336 79 74 19 257 133 111 63 50 70 63 72 43 27 33 37 6 29 8 22 341 252 15 77 356 358 346 186 166 114 106 94 202
311 307 318 330 339 341 340 343 343 353 6 78 70 21 338 47 69 117 125 29 93 205 95 100 162 154 89 53 12 29 12 354 2 48 36 37 44 169 181 187 132 187 185 174 134 135 185
285 299 319 326 334 341 344 345 343 351 10 91 32 232 187 325 358 69 50 70 77 57 105 71 74 40 131 94 68 98 242 332 16 359 51 82 32 36 320 334 323 237 186 181 194 185 186
269 280 299 313 320 341 350 350 348 349 3 80 92 116 12 115 305 58 7 58 318 336 1 349 105 147 167 176 193 207 167 202 201 30 57 351 162 106 306 82 193 265 259 249 271 297 282
252 266 281 299 313 330 348 356 357 359 13 84 136 1 107 294 43 92 214 162 165 159 4 5 263 54 343 220 182 274 318 106 112 176 151 116 130 79 264 234 271 273 211 184 182 191 188
242 247 257 270 287 313 334 353 8 21 54 102 118 104 85 259 172 216 207 196 193 184 180 207 140 162 141 88 98 105 77 80 77 18 26 127 99 118 250 1 316 273 160 188 193 201 209
243 234 244 254 261 270 286 331 8 33 53 85 135 87 92 277 202 276 220 237 84 348 190 187 175 164 139 78 34 2 340 20 50 50 11 25 123 84 126 224 288 65 221 155 177 272 192
21 30 25 285 264 265 247 244 314 38 88 94 127 135 98 112 259 354 135 182 206 222 330 247 36 146 77 85 83 165 246 249 274 8 45 73 75 114 132 157 242 221 200 197 156 313 198
3 12 16 18 3 300 263 242 234 199 137 105 154 155 100 145 255 151 184 187 138 126 160 294 178 87 23 100 150 189 240 179 226 196 170 107 87 188 195 255 286 242 218 160 169 228 194
7 360 357 2 356 359 344 283 246 224 174 134 207 187 117 176 277 205 205 162 142 160 162 192 70 345 57 156 172 214 198 223 178 179 175 176 153 199 138 202 275 182 104 173 212 294 258
350 358 354 356 344 345 342 347 291 242 196 153 188 174 146 147 242 220 238 238 193 193 147 189 190 165 186 106 193 119 203 90 188 251 19 228 190 187 188 212 246 226 299 127 135 221 277